• In Deutschland
  • Länderverzeichnis
  • Für 7 Tage
  • Wassertemperatur
  • Satellitenkarten
  • Wetterkarte
  • Widgets
  • user-avatar
    Anmelden

    Stündliche Wetter Reutlingen

    Heute, 11 Dezember, Montag

    Zeit Temperatur Niederschläge Wind Luftdruck Luftfeuchtigkeit
    00:00 +2°C° 0,4 mm 5 m/S 704 mmHg 89%
    01:00 +2°C° 0 mm 5 m/S 704 mmHg 90%
    02:00 +3°C° 0,4 mm 4 m/S 703 mmHg 91%
    03:00 +3°C° 0,4 mm 3 m/S 703 mmHg 91%
    04:00 +4°C° 0,4 mm 2 m/S 703 mmHg 92%
    05:00 +3°C° 0,7 mm 2 m/S 702 mmHg 92%
    06:00 +3°C° 0,7 mm 2 m/S 701 mmHg 92%
    07:00 +3°C° 0 mm 3 m/S 701 mmHg 91%
    08:00 +2°C° 1,2 mm 3 m/S 701 mmHg 91%
    09:00 +2°C° 1,2 mm 3 m/S 700 mmHg 92%
    10:00 +2°C° 1,2 mm 3 m/S 700 mmHg 92%
    11:00 +3°C° 0,6 mm 2 m/S 700 mmHg 93%
    12:00 +4°C° 0,6 mm 2 m/S 699 mmHg 93%
    13:00 +4°C° 0,6 mm 2 m/S 699 mmHg 94%
    14:00 +4°C° 0,6 mm 2 m/S 700 mmHg 93%
    15:00 +4°C° 0,6 mm 2 m/S 700 mmHg 92%
    16:00 +4°C° 0,6 mm 2 m/S 701 mmHg 92%
    17:00 +3°C° 0,3 mm 3 m/S 702 mmHg 91%
    18:00 +3°C° 0,3 mm 3 m/S 703 mmHg 89%
    19:00 +3°C° 0,3 mm 4 m/S 703 mmHg 88%
    20:00 +3°C° 0,4 mm 4 m/S 704 mmHg 88%
    21:00 +2°C° 0,4 mm 5 m/S 704 mmHg 87%
    22:00 +2°C° 0,4 mm 5 m/S 705 mmHg 86%
    23:00 +2°C° 0,1 mm 5 m/S 705 mmHg 86%

    Morgen, 12 Dezember, Dienstag

    Zeit Temperatur Niederschläge Wind Luftdruck Luftfeuchtigkeit
    00:00 +2°C° 0,1 mm 5 m/S 706 mmHg 85%
    01:00 +2°C° 0,1 mm 6 m/S 707 mmHg 84%
    02:00 +2°C° 0 mm 6 m/S 708 mmHg 84%
    03:00 +1°C° 0 mm 6 m/S 709 mmHg 83%
    04:00 -1°C° 0 mm 7 m/S 710 mmHg 82%
    05:00 -1°C° 0 mm 7 m/S 711 mmHg 82%
    06:00 -1°C° 0 mm 7 m/S 713 mmHg 82%
    07:00 -2°C° 0 mm 7 m/S 714 mmHg 82%
    08:00 -2°C° 0 mm 6 m/S 716 mmHg 82%
    09:00 -1°C° 0 mm 6 m/S 717 mmHg 82%
    10:00 -1°C° 0 mm 6 m/S 718 mmHg 82%
    11:00 0°C° 0 mm 5 m/S 719 mmHg 81%
    12:00 0°C° 0 mm 5 m/S 720 mmHg 81%
    13:00 0°C° 0 mm 5 m/S 721 mmHg 80%
    14:00 0°C° 0 mm 4 m/S 722 mmHg 81%
    15:00 0°C° 0 mm 4 m/S 722 mmHg 83%
    16:00 0°C° 0 mm 3 m/S 723 mmHg 85%
    17:00 0°C° 0 mm 3 m/S 724 mmHg 86%
    18:00 -1°C° 0 mm 3 m/S 724 mmHg 87%
    19:00 -1°C° 0 mm 3 m/S 725 mmHg 89%
    20:00 -2°C° 0 mm 3 m/S 726 mmHg 89%
    21:00 -2°C° 0 mm 3 m/S 726 mmHg 90%
    22:00 -2°C° 0 mm 3 m/S 727 mmHg 90%
    23:00 -2°C° 0 mm 3 m/S 727 mmHg 91%

    übermorgen, 13 Dezember, Mittwoch

    Zeit Temperatur Niederschläge Wind Luftdruck Luftfeuchtigkeit
    00:00 -2°C° 0 mm 3 m/S 728 mmHg 91%
    01:00 -4°C° 0 mm 3 m/S 728 mmHg 91%
    02:00 -4°C° 0 mm 3 m/S 728 mmHg 90%
    03:00 -4°C° 0 mm 3 m/S 728 mmHg 90%
    04:00 -4°C° 0 mm 3 m/S 727 mmHg 89%
    05:00 -4°C° 0 mm 3 m/S 727 mmHg 87%
    06:00 -4°C° 0 mm 3 m/S 727 mmHg 85%
    07:00 -4°C° 0 mm 3 m/S 727 mmHg 83%
    08:00 -3°C° 0 mm 4 m/S 727 mmHg 78%
    09:00 -2°C° 0 mm 4 m/S 726 mmHg 73%
    10:00 -2°C° 0 mm 5 m/S 725 mmHg 67%
    11:00 -1°C° 0 mm 5 m/S 724 mmHg 64%
    12:00 0°C° 0 mm 5 m/S 723 mmHg 61%
    13:00 +1°C° 0 mm 5 m/S 722 mmHg 57%
    14:00 +1°C° 0,3 mm 5 m/S 722 mmHg 63%
    15:00 +1°C° 0,3 mm 5 m/S 721 mmHg 68%
    16:00 +1°C° 0,3 mm 6 m/S 721 mmHg 74%
    17:00 +1°C° 0,4 mm 6 m/S 720 mmHg 76%
    18:00 +1°C° 0,4 mm 6 m/S 720 mmHg 78%
    19:00 +2°C° 0,4 mm 6 m/S 720 mmHg 81%
    20:00 +2°C° 0,3 mm 6 m/S 720 mmHg 82%
    21:00 +2°C° 0,3 mm 5 m/S 719 mmHg 83%
    22:00 +2°C° 0,3 mm 5 m/S 718 mmHg 84%
    23:00 +2°C° 0,4 mm 5 m/S 718 mmHg 84%

    14 Dezember, Donnerstag

    Zeit Temperatur Niederschläge Wind Luftdruck Luftfeuchtigkeit
    00:00 +3°C° 0,4 mm 6 m/S 717 mmHg 85%
    01:00 +3°C° 0,4 mm 6 m/S 716 mmHg 86%
    02:00 +3°C° 0,4 mm 7 m/S 716 mmHg 86%
    03:00 +4°C° 0,4 mm 7 m/S 715 mmHg 87%
    04:00 +4°C° 0,4 mm 7 m/S 715 mmHg 87%
    05:00 +4°C° 0,4 mm 7 m/S 715 mmHg 88%
    06:00 +4°C° 0,4 mm 7 m/S 715 mmHg 89%
    07:00 +4°C° 0,4 mm 6 m/S 715 mmHg 90%
    08:00 +4°C° 0,2 mm 6 m/S 715 mmHg 88%
    09:00 +4°C° 0,2 mm 7 m/S 715 mmHg 86%
    10:00 +4°C° 0,2 mm 7 m/S 715 mmHg 84%
    11:00 +4°C° 0 mm 8 m/S 714 mmHg 81%
    12:00 +5°C° 0 mm 8 m/S 713 mmHg 77%
    13:00 +5°C° 0 mm 9 m/S 713 mmHg 74%
    14:00 +5°C° 0,9 mm 9 m/S 712 mmHg 76%
    15:00 +3°C° 0,9 mm 9 m/S 712 mmHg 78%
    16:00 +4°C° 0,9 mm 8 m/S 711 mmHg 80%
    17:00 +3°C° 2,8 mm 7 m/S 711 mmHg 82%
    18:00 +3°C° 2,8 mm 6 m/S 711 mmHg 84%
    19:00 +2°C° 2,8 mm 5 m/S 712 mmHg 86%
    20:00 +2°C° 0,8 mm 5 m/S 712 mmHg 87%
    21:00 +2°C° 0,8 mm 5 m/S 712 mmHg 87%
    22:00 +1°C° 0,8 mm 5 m/S 713 mmHg 87%
    23:00 +1°C° 0,5 mm 5 m/S 713 mmHg 87%

    15 Dezember, Freitag

    Zeit Temperatur Niederschläge Wind Luftdruck Luftfeuchtigkeit
    00:00 +1°C° 0,5 mm 4 m/S 713 mmHg 87%
    01:00 +1°C° 0,5 mm 4 m/S 713 mmHg 87%
    02:00 0°C° 0,1 mm 4 m/S 713 mmHg 88%
    03:00 0°C° 0,1 mm 4 m/S 714 mmHg 88%
    04:00 0°C° 0,1 mm 4 m/S 714 mmHg 88%
    05:00 -1°C° 0 mm 4 m/S 714 mmHg 89%
    06:00 0°C° 0 mm 3 m/S 714 mmHg 89%
    07:00 0°C° 0 mm 3 m/S 714 mmHg 90%
    08:00 -1°C° 0 mm 4 m/S 715 mmHg 88%
    09:00 0°C° 0 mm 4 m/S 715 mmHg 86%
    10:00 0°C° 0 mm 5 m/S 715 mmHg 84%
    11:00 0°C° 0 mm 5 m/S 715 mmHg 82%
    12:00 +1°C° 0 mm 6 m/S 714 mmHg 80%
    13:00 +1°C° 0 mm 6 m/S 714 mmHg 77%
    14:00 +1°C° 0 mm 6 m/S 714 mmHg 79%
    15:00 0°C° 0 mm 5 m/S 714 mmHg 80%
    16:00 0°C° 0 mm 4 m/S 714 mmHg 82%
    17:00 0°C° 0,2 mm 5 m/S 714 mmHg 84%
    18:00 0°C° 0,2 mm 5 m/S 715 mmHg 86%
    19:00 0°C° 0,2 mm 5 m/S 716 mmHg 88%
    20:00 -1°C° 0,6 mm 5 m/S 716 mmHg 88%
    21:00 -1°C° 0,6 mm 5 m/S 717 mmHg 88%
    22:00 -1°C° 0,6 mm 5 m/S 718 mmHg 88%
    23:00 -1°C° 0,1 mm 5 m/S 718 mmHg 89%

    16 Dezember, Samstag

    Zeit Temperatur Niederschläge Wind Luftdruck Luftfeuchtigkeit
    00:00 -2°C° 0,1 mm 5 m/S 719 mmHg 89%
    01:00 -2°C° 0,1 mm 4 m/S 719 mmHg 89%
    02:00 -2°C° 0,2 mm 4 m/S 720 mmHg 90%
    03:00 -2°C° 0,2 mm 5 m/S 720 mmHg 90%
    04:00 -1°C° 0,2 mm 5 m/S 721 mmHg 90%
    05:00 -1°C° 0,1 mm 5 m/S 721 mmHg 90%
    06:00 -1°C° 0,1 mm 5 m/S 721 mmHg 90%
    07:00 -2°C° 0,1 mm 5 m/S 722 mmHg 90%
    08:00 -2°C° 0 mm 5 m/S 722 mmHg 88%
    09:00 -2°C° 0 mm 5 m/S 723 mmHg 86%
    10:00 -2°C° 0 mm 5 m/S 724 mmHg 83%
    11:00 -2°C° 0 mm 6 m/S 724 mmHg 83%
    12:00 -2°C° 0 mm 6 m/S 724 mmHg 82%
    13:00 -2°C° 0 mm 6 m/S 724 mmHg 82%
    14:00 -1°C° 0,1 mm 5 m/S 724 mmHg 83%
    15:00 -1°C° 0,1 mm 4 m/S 724 mmHg 84%
    16:00 -1°C° 0,1 mm 4 m/S 725 mmHg 86%
    17:00 -2°C° 0,1 mm 4 m/S 725 mmHg 87%
    18:00 -1°C° 0,1 mm 3 m/S 725 mmHg 89%
    19:00 -2°C° 0,1 mm 3 m/S 726 mmHg 91%
    20:00 -2°C° 0,1 mm 3 m/S 726 mmHg 91%
    21:00 -1°C° 0,1 mm 3 m/S 726 mmHg 91%
    22:00 -1°C° 0,1 mm 3 m/S 727 mmHg 91%
    23:00 -1°C° 0 mm 3 m/S 727 mmHg 91%
    Mehr zeigen